Flag for U.S.A. Weather past 2 weeks in Garden Grove, California, U.S.A.

Now
69 °F

Passing clouds.


Feels Like: 69 °F
Forecast: 65 / 76 °F
Wind: 3 mph from Southeast

Location: Fullerton Municipal Airport

Current Time: Sep 3, 2015 at 11:53:47 PM

Latest Report: Sep 3, 2015 at 10:53 PM


Visibility: 10 mi

Pressure: 29.85 "Hg

Humidity: 70%

Dew point: 59 °F

Location of Garden GroveLocation

Historic Weather in Garden Grove — Graph

°F

Garden Grove temperature yesterday

Maximum temperature yesterday: 80 °F (at 1:53 PM)
Minimum temperature yesterday: 69 °F (at 9:53 PM)
Average temperature yesterday: 73 °F

Past Weeks' High & Low Weather Summary

 TemperatureHumidityPressure
High98 °F (Aug 28, 1:53 PM)88% (Aug 30, 5:02 AM)29.97 "Hg (Aug 30, 5:02 AM)
Low67 °F (Aug 23, 4:53 AM)22% (Aug 28, 1:53 PM)29.79 "Hg (Aug 28, 5:53 PM)
Average77 °F64%29.88 "Hg
* Reported Aug 19 9:53 PM — Sep 3 9:53 PM, Garden Grove, Weather by CustomWeather, © 2015

Note: Actual official high and low records may vary slightly from our data, if they occured in-between our weather recording intervals... More about our weather records

Advertising

Garden Grove weather history for previous 24 hours

 ConditionsComfort  
Time TempWeatherWind HumidityBarometerVisibility
9:53 PM
Thu, Sep 3
69 °FPassing clouds.5 mph70%29.85 "Hg10 mi
8:53 PM70 °FClear.5 mph68%29.83 "Hg10 mi
7:53 PM70 °FSunny.5 mph68%29.82 "Hg10 mi
6:53 PM73 °FSunny.8 mph62%29.81 "Hg10 mi
5:53 PM75 °FSunny.8 mph55%29.80 "Hg10 mi
4:53 PM77 °FSunny.8 mph50%29.80 "Hg10 mi
3:53 PM77 °FSunny.10 mph50%29.81 "Hg10 mi
2:53 PM79 °FSunny.7 mph47%29.83 "Hg10 mi
1:53 PM78 °FSunny.5 mph48%29.85 "Hg10 mi
12:53 PM78 °FSunny.No wind48%29.88 "Hg10 mi
11:53 AM74 °FPartly sunny.No wind56%29.90 "Hg10 mi
10:53 AM73 °FOvercast.5 mph59%29.92 "Hg10 mi
9:53 AM71 °FOvercast.No wind66%29.93 "Hg10 mi
8:53 AM70 °FOvercast.6 mph66%29.93 "Hg10 mi
7:53 AM69 °FOvercast.7 mph68%29.91 "Hg10 mi
6:53 AM68 °FOvercast.3 mph73%29.90 "Hg10 mi
5:53 AM68 °FOvercast.3 mph70%29.89 "Hg10 mi
4:53 AM68 °FOvercast.5 mph70%29.90 "Hg10 mi
3:53 AM68 °FPassing clouds.5 mph73%29.90 "Hg10 mi
2:53 AM68 °FPassing clouds.5 mph73%29.90 "Hg10 mi
1:53 AM69 °FOvercast.6 mph73%29.90 "Hg10 mi
12:53 AM69 °FPassing clouds.No wind73%29.92 "Hg10 mi
11:53 PM
Wed, Sep 2
70 °FOvercast.No wind71%29.92 "Hg10 mi
Weather by CustomWeather, © 2015

See weather overviewHow to use our weather pages